EW7358 Weather Reports


Display with metric or nautical units.
time (UTC)temp
F
wind
direction
speed
MPH
gust
MPH
rain 1hr
in
rain 24hr
in
rain mn
in
humidity
%
barometer
mb
20260505114134 58 319 7.0 17.0 0.00 0.00 0.00 38 1006.4
20260505111815 58 256 5.0 13.0 0.00 0.00 0.00 38 1006.1
20260505111104 58 327 6.0 13.0 0.00 0.00 0.00 38 1006.0
20260505101130 59 302 6.0 16.0 0.00 0.00 0.00 36 1005.4
20260505095250 60 16 7.0 16.0 0.00 0.00 0.00 36 1005.4
20260505093259 60 293 7.0 15.0 0.00 0.00 0.00 36 1005.4
20260505090237 60 281 6.0 14.0 0.00 0.00 0.00 38 1005.3
20260505084502 60 325 6.0 18.0 0.00 0.00 0.00 37 1005.2
20260505082845 61 303 6.0 18.0 0.00 0.00 0.00 36 1005.0
20260505080416 61 329 7.0 19.0 0.00 0.00 0.00 36 1004.8
20260505074156 62 325 8.0 19.0 0.00 0.00 0.00 34 1004.6
20260505071854 62 360 7.0 18.0 0.00 0.00 0.00 33 1004.5
20260505065859 63 341 6.0 18.0 0.00 0.00 0.00 33 1004.2
20260505063539 63 354 4.0 10.0 0.00 0.00 0.00 34 1004.2
20260505061801 63 10 5.0 11.0 0.00 0.00 0.00 33 1003.9
20260505061051 64 128 3.0 11.0 0.00 0.00 0.00 32 1003.9
20260505060351 64 293 5.0 11.0 0.00 0.00 0.00 32 1003.9
20260505055655 65 274 5.0 15.0 0.00 0.00 0.00 32 1003.8
20260505054820 66 300 4.0 16.0 0.00 0.00 0.00 30 1003.6
20260505054014 66 351 6.0 16.0 0.00 0.00 0.00 29 1003.3
20260505053521 67 335 3.0 18.0 0.00 0.00 0.00 29 1003.2
20260505053138 68 352 7.0 18.0 0.00 0.00 0.00 28 1003.2
20260505052327 68 100 8.0 22.0 0.00 0.00 0.00 28 1003.0
20260505051719 69 3 7.0 22.0 0.00 0.00 0.00 28 1002.9
20260505051237 70 301 8.0 15.0 0.00 0.00 0.00 28 1002.8
20260505051004 70 320 6.0 15.0 0.00 0.00 0.00 28 1002.7
20260505050431 71 330 5.0 13.0 0.00 0.00 0.00 28 1002.6
20260505041730 73 243 6.0 16.0 0.00 0.00 0.00 26 1002.3
20260505040811 74 335 5.0 16.0 0.00 0.00 0.00 27 1002.2
20260505035848 74 325 6.0 16.0 0.00 0.00 0.00 28 1002.2
20260505035037 74 301 7.0 15.0 0.00 0.00 0.00 27 1002.1
20260505034226 74 32 9.0 15.0 0.00 0.00 0.00 26 1002.0
20260505033303 75 275 7.0 15.0 0.00 0.00 0.00 26 1001.9
20260505032603 75 294 5.0 15.0 0.00 0.00 0.00 26 1001.9
20260505031902 75 298 8.0 14.0 0.00 0.00 0.00 26 1001.9
20260505031051 76 360 7.0 13.0 0.00 0.00 0.00 26 1001.7
20260505030241 76 302 6.0 12.0 0.00 0.00 0.00 26 1001.7
20260505025320 76 347 5.0 11.0 0.00 0.00 0.00 25 1001.6
20260505024251 76 334 4.0 12.0 0.00 0.00 0.00 26 1001.6
20260505023441 76 14 4.0 19.0 0.00 0.00 0.00 26 1001.5
20260505022847 76 328 7.0 19.0 0.00 0.00 0.00 25 1001.4
20260505022254 77 269 5.0 15.0 0.00 0.00 0.00 26 1001.3
20260505021435 77 319 8.0 15.0 0.00 0.00 0.00 27 1001.1
20260505020630 78 321 6.0 15.0 0.00 0.00 0.00 26 1001.0
20260505015707 78 297 5.0 17.0 0.00 0.00 0.00 27 1001.0
20260505014859 78 288 7.0 16.0 0.00 0.00 0.00 27 1000.9
20260505013932 79 26 3.0 15.0 0.00 0.00 0.00 31 1000.7
20260505012755 79 36 5.0 16.0 0.00 0.00 0.00 28 1000.7
20260505012418 79 354 5.0 16.0 0.00 0.00 0.00 29 1000.6
20260505011943 79 348 6.0 13.0 0.00 0.00 0.00 29 1000.5
20260505011127 80 326 6.0 15.0 0.00 0.00 0.00 30 1000.4
20260505010757 80 318 6.0 15.0 0.00 0.00 0.00 31 1000.3
20260505010203 79 289 9.0 14.0 0.00 0.00 0.00 29 1000.3
20260505005022 79 295 8.0 16.0 0.00 0.00 0.00 29 1000.3
20260505004433 79 294 7.0 16.0 0.00 0.00 0.00 29 1000.2
20260505003619 80 298 5.0 15.0 0.00 0.00 0.00 29 1000.2
20260505002442 81 300 7.0 16.0 0.00 0.00 0.00 28 1000.2
20260505001414 81 325 7.0 19.0 0.00 0.00 0.00 30 1000.1
20260505000233 81 278 10.0 19.0 0.00 0.00 0.00 28 1000.1
20260504235305 81 320 7.0 19.0 0.00 0.00 0.00 28 1000.1
20260504234717 81 309 10.0 19.0 0.00 0.00 0.00 27 1000.0
20260504234127 81 302 7.0 18.0 0.00 0.00 0.00 26 1000.0
20260504233425 81 331 9.0 18.0 0.00 0.00 0.00 25 1000.1
20260504232721 81 290 6.0 14.0 0.00 0.00 0.00 26 1000.1
20260504232308 81 259 5.0 13.0 0.00 0.00 0.00 25 1000.1
20260504231430 81 315 9.0 13.0 0.00 0.00 0.00 24 1000.0
20260504230512 81 289 5.0 18.0 0.00 0.00 0.00 26 1000.0
20260504230043 81 280 7.0 18.0 0.00 0.00 0.00 24 1000.1
20260504224958 80 265 7.0 19.0 0.00 0.00 0.00 25 1000.1
20260504224538 80 290 8.0 17.0 0.00 0.00 0.00 23 1000.2
20260504223705 80 267 6.0 17.0 0.00 0.00 0.00 26 1000.2
20260504222857 81 280 9.0 17.0 0.00 0.00 0.00 24 1000.2
20260504222519 81 326 4.0 20.0 0.00 0.00 0.00 26 1000.2
20260504221932 81 305 12.0 20.0 0.00 0.00 0.00 25 1000.3
20260504221228 81 238 7.0 17.0 0.00 0.00 0.00 26 1000.2
20260504220422 81 244 7.0 19.0 0.00 0.00 0.00 27 1000.3
20260504215828 80 316 7.0 21.0 0.00 0.00 0.00 27 1000.3
20260504215019 80 282 12.0 21.0 0.00 0.00 0.00 27 1000.3
20260504214208 80 300 9.0 21.0 0.00 0.00 0.00 26 1000.3
20260504213355 80 290 10.0 21.0 0.00 0.00 0.00 27 1000.3
20260504212435 80 294 7.0 17.0 0.00 0.00 0.00 29 1000.3
20260504210445 79 261 9.0 21.0 0.00 0.00 0.00 29 1000.5
20260504205634 80 304 7.0 21.0 0.00 0.00 0.00 29 1000.4
20260504204713 80 258 7.0 19.0 0.00 0.00 0.00 29 1000.5
20260504204010 80 301 8.0 17.0 0.00 0.00 0.00 31 1000.5
20260504202726 79 234 9.0 21.0 0.00 0.00 0.00 32 1000.6
20260504201801 79 282 8.0 21.0 0.00 0.00 0.00 32 1000.5
20260504200623 80 292 9.0 19.0 0.00 0.00 0.00 28 1000.5
20260504195809 81 265 6.0 17.0 0.00 0.00 0.00 30 1000.5
20260504194631 81 276 9.0 16.0 0.00 0.00 0.00 28 1000.4
20260504193710 80 302 8.0 25.0 0.00 0.00 0.00 29 1000.5
20260504192748 80 228 8.0 25.0 0.00 0.00 0.00 29 1000.5
20260504191939 80 269 10.0 19.0 0.00 0.00 0.00 28 1000.3
20260504191343 80 249 10.0 20.0 0.00 0.00 0.00 30 1000.5
20260504190751 79 262 7.0 20.0 0.00 0.00 0.00 31 1000.5
20260504190423 78 277 6.0 19.0 0.00 0.00 0.00 30 1000.4
20260504185614 78 248 7.0 22.0 0.00 0.00 0.00 30 1000.5
20260504184913 79 296 9.0 22.0 0.00 0.00 0.00 30 1000.5
20260504184320 79 294 6.0 11.0 0.00 0.00 0.00 31 1000.5
20260504183358 79 270 5.0 9.0 0.00 0.00 0.00 35 1000.4
20260504182658 79 278 3.0 11.0 0.00 0.00 0.00 36 1000.5
20260504181408 78 214 2.0 16.0 0.00 0.00 0.00 38 1000.6
20260504180708 78 251 7.0 16.0 0.00 0.00 0.00 35 1000.7
20260504175751 78 242 6.0 13.0 0.00 0.00 0.00 34 1000.8
20260504175049 78 199 5.0 9.0 0.00 0.00 0.00 37 1000.8
20260504173911 78 182 3.0 9.0 0.00 0.00 0.00 40 1000.9
20260504173316 78 215 4.0 12.0 0.00 0.00 0.00 41 1001.0
20260504172833 77 165 3.0 12.0 0.00 0.00 0.00 40 1001.0
20260504172245 77 205 4.0 10.0 0.00 0.00 0.00 39 1001.1
20260504171653 77 228 4.0 9.0 0.00 0.00 0.00 41 1001.0
20260504170954 76 225 4.0 9.0 0.00 0.00 0.00 42 1001.0
20260504170625 76 242 2.0 7.0 0.00 0.00 0.00 42 1001.0
20260504150810 69 250 2.0 6.0 0.00 0.00 0.00 50 1001.6
20260504141012 64 192 3.0 8.0 0.00 0.00 0.00 53 1002.0
20260504140510 63 197 2.0 7.0 0.00 0.00 0.00 54 1001.9
20260504130504 58 234 0.0 9.0 0.00 0.00 0.00 58 1002.4